Orbital Elements at Epoch 2459200.5 (2020-Dec-17.0) TDB
Reference: JPL 20 (heliocentric ecliptic J2000)
Element | Value | Uncertainty (1-sigma) | Units |
e | .1343964109110222 | 6.2504e-08 | |
a | 3.206060266155756 | 3.3255e-08 | au |
q | 2.775177273219986 | 1.8968e-07 | au |
i | 17.81815448642123 | 5.9457e-06 | deg |
node | 158.9512578886213 | 1.7048e-05 | deg |
peri | 352.8514038012183 | 2.6323e-05 | deg |
M | 141.3351003752817 | 2.1818e-05 | deg |
tp | 2458377.303565996732 (2018-Sep-15.80356600) | 0.00012395 | TDB |
period | 2096.794889976288 5.74 | 3.2624e-05 8.932e-08 | d yr |
n | .1716906130022432 | 2.6713e-09 | deg/d |
Q | 3.636943259091526 | 3.7725e-08 | au |
|
| | Orbit Determination Parameters
Additional Information
|